Location: Unspecified
(33.1847°N, 0.0000°E)
Time: 00:36:28
(UTC+00:00)

BlueWalker 3 - Visible Passes

Search period start: 05 April 2026 00:00
Search period end: 15 April 2026 00:00
Orbit: 451 x 457 km, 53.2° (Epoch: 29 March)

Date Brightness Start Highest point End Pass type
(mag) Time Alt. Az. Time Alt. Az. Time Alt. Az.
5 Apr 4.8 20:48:42 10° NNW 20:48:55 11° N 20:48:55 11° N visible
6 Apr 4.2 20:12:41 10° N 20:13:58 14° NNE 20:13:58 14° NNE visible
7 Apr 4.1 19:36:51 10° N 19:38:14 12° NNE 19:39:03 11° NE visible
7 Apr 5.1 21:12:30 10° NW 21:12:44 12° NW 21:12:44 12° NW visible
8 Apr 3.7 20:36:05 10° NW 20:37:52 27° NNW 20:37:52 27° NNW visible
9 Apr 2.3 19:59:43 10° NNW 20:03:03 44° NE 20:03:03 44° NE visible
10 Apr 2.8 19:23:24 10° NNW 19:26:40 32° NE 19:28:17 22° E visible
10 Apr 4.8 21:01:16 10° WNW 21:01:59 13° W 21:01:59 13° W visible
11 Apr 3.2 18:47:08 10° NNW 18:50:07 24° NE 18:53:06 10° E visible
11 Apr 3.4 20:24:25 10° WNW 20:27:18 27° WSW 20:27:18 27° WSW visible
12 Apr 2.8 19:47:41 10° WNW 19:51:04 40° SW 19:52:43 24° S visible
13 Apr 2.2 19:11:05 10° NW 19:14:37 60° SW 19:18:08 10° SSE visible
